Torna al catalogo

ZACUBE-1

ZACUBE

AttivoRadioamatoreSSO
NORAD 39417·PAYLOAD·🇿🇦 South Africa

Lanciato Nov 21, 2013 da Dombarovsky

Loading…

Prossimi Passaggi (prossime 24 ore)

TLE

AggiornatoSource: Space-Track

Epoca: Sep 14, 2026, 20:13 UTC

1 39417U 13066B   26257.84282502  .00004434  00000-0  33927-3 0  9995
2 39417  97.8141 220.6409 0039756 313.2857  46.5052 15.01806718694185

Traccia ZACUBE-1 in tempo reale con AllMySat

Download on the App Store